Location: Austin
(30.3000°N, 97.7500°W)
Time: 23:00:58
(UTC-05:00)

Cosmos 909 Rocket - Pass Details

Date: 06 May 2026
Orbit: 990 x 2089 km, 65.9° (Epoch: 13 May)

Event Time Altitude Azimuth Distance (km) Brightness Sun altitude
Exits shadow 22:50:59 62° 54° (NE) 1,122 4.1 -29.7°
Drops below altitude 10° 22:56:11 10° 30° (NNE) 2,753 6.5 -30.4°
Sets 22:58:43 0° 29° (NNE) 3,723 7.3 -30.8°
